CZ-4C DEB, 43631

Orbit data source: Space-Track

CZ-4C DEB, 43631 is space debris in SSO originally from a launch on Wed, 20 Nov 2013 UTC launched from the Taiyaun Space Center, China (TSC). Debris objects in space refer to the collection of defunct objects orbiting the Earth. Examples of debris include non-operational satellites, rocket bodies, and fragments generated from explosions, collisions, or faulty payload assembly.

Loading next visibility...
Identifier
43631, 2013-065G
Orbit
SSO
Country
Flag of CNCN / PRC
Related business
Manufacturer
SAST
Mission
Spacecraft
Bus & Motor
Unknown
Mass
Unknown
Launch date (UTC)
2013-11-20 (13 years ago)
Launch vehicle
Unknown
Launch site
Taiyaun Space Center, China (TSC)
Object type
Payload
Rocket body
Debris
Shape & HBR
Unknown shape, 0.1 m
Radar Cross Section
Small (<0.1 m²)

Expand to show TLE details & history
Last TLE update: 2 days ago

TLE from 2 days ago
0 CZ-4C DEB
1 43631U 13065G   26170.97679921  .00002017  00000-0  14112-2 0  9999
2 43631 100.5980 356.6660 0188198 183.4586 176.5280 13.91736008395053
Epoch: 2026-06-19T23:26Z
TLE epoch observation values (Epoch: 2026-06-19T23:26:35.451Z)
Latitude
0.00002°
Longitude
96.82024°
Altitude
1,062.545 km
Speed
7.252 km/s
True Right ascension
23h 46m 39s
True Declination
0° 00' 00"
Sunlit
Object was in daylight at epoch
Visualization orbit readout
Latitude
Unknown
Longitude
Unknown
Altitude
Unknown
Speed
Unknown
Apparent Right ascension
Unknown
Apparent Declination
Unknown
Sunlit
N/A
Visualization observer readout
Local Sidereal Time
21:24:06
Azimuth
Unknown
Elevation
Unknown
Doppler factor
Unknown
Orbital elements
Apogee altitude
1,057.194 km
Perigee altitude
782.5 km
Semi-major axis
7,297.984 km
Eccentricity
0.01882
Inclination
100.598°
RAAN
356.666°
Arg. of periapsis
183.4586°
True anomaly
176.65561°
Mean anomaly
176.528°
Eccentric anomaly
176.5921°
Mean motion
3.48128 °/min
Orbital period
103.41 mins
BSTAR
0.0014112
Loading maneuver chart data...
Computing Atmospheric mass density...
Loading historical data...
Loading historical data...
Loading historical data...
Loading historical data...
Loading historical data...
Loading historical data...
Loading historical data...

Documentation

Showing up to 5 results
|